CZ-6A DEB

Satellite information

Favourite Embed

Satellite Type and Status

DEBRISIN ORBIT

Key statistics

Satellite CZ-6A DEB at a glance.

Uptime

1024

Days in orbit

Revolutions

≈ 14.8

Per day

Orbit

SSO

Sun Synchronous Orbit

Inclination

98.7

Latest

Satellite identification and parameters

Extended collection of information and parameters for CZ-6A DEB.

Object identification

Identified? True

Debris? True

Object name: CZ-6A DEB

International designator: 2022-151ACK

Object number (NORAD): 56267

Object ID (CCSDS): 56267

Country: PEOPLES REPUBLIC OF CHINA (PRC)

Current information (Y/N): Y

RCS size: SMALL

Orbital parameters

Period: 97.548 minutes

Inclination: 98.6507 deg

SMA: 7019.495 km

Apoapsis: 690.103 km

Periapsis: 592.617 km

RAAN: 297.8214 deg

Eccentricy: 0.00694397

Argument of periapsis: 77.5928 deg

Mean anomaly: 283.3039 deg

Mean motion: 14.76195736 rev/day

Mean motion (dot): 0.000309 rev/day2

B* drag term: 0.0042852873 1/REarth

Two-line elements (TLE)

Creation date: Aug. 30, 2025, 11:24 a.m.

Reference frame: TEME

Reference center: EARTH

Epoch: Aug. 30, 2025, 3 a.m. UTC

TLE line 0: 0 CZ-6A DEB

TLE line 1: 1 56267U 22151ACK 25242.12562808 .00030900 00000-0 42853-2 0 9990

TLE line 2: 2 56267 98.6507 297.8214 0069440 77.5928 283.3039 14.76195736135890

Live tracking on map

Real-time ground track for satellite CZ-6A DEB.

In-orbit conjunctions

A list of the most updated potential collisions computed for object CZ-6A DEB.

Target Orbit TCA Probability of collision Miss distance Type
PSLV R/B SSO 2025-05-22 07:23:53 0.0007735244 78.0 (m) ROCKET BODY
COSMOS 44 LEO 2024-09-17 12:36:29 0.0003285983 63.0 (m) PAYLOAD

Associated space launch

Chinese satellite reported for atmospheric/ocean/environmental/spatial parameter research purposes, details TBD.

CZ-6A DEB was lifted into orbit during the mission ‘Long March 6A | Yunhai 3’, on board a Long March 6A space rocket.

The launch took place on Nov. 11, 2022, 10:52 p.m. from Launch Complex 9A.

For more information about the launch, click the button.

Launch to space Long March 6A | Yunhai 3
Long March 6A | Yunhai 3

Agency: N/A

Status: Launch Successful

Launch date: Nov. 11, 2022, 10:52 p.m. UTC

Rocket: Long March 6A

Launch pad: Launch Complex 9A

Location: Taiyuan Satellite Launch Center, People's Republic of China

...

Latest news about this satellite

There are no fresh news available about this satellite. Check back as we update our databases every day.


Newsletter sign-up

Weekly statistics, charts and insights to help you stay on top of the space industry.